Location: Palermo
(38.1157°N, 13.3613°E)
Time: 07:34:26
(UTC+02:00)

ISS - Visible Passes

Search period start: 24 September 2018 00:00
Search period end: 04 October 2018 00:00
Orbit: 403 x 409 km, 51.6° (Epoch: 24 September)

Date Brightness Start Highest point End Pass type
(mag) Time Alt. Az. Time Alt. Az. Time Alt. Az.
24 Sep -2.2 20:17:23 10° W 20:20:25 33° NNW 20:22:58 13° NNE visible
25 Sep -3.3 19:25:14 10° WSW 19:28:30 60° NW 19:31:47 10° NE visible
25 Sep -0.9 21:03:55 10° NW 21:05:33 13° NNW 21:06:06 13° N visible
26 Sep -1.2 20:11:05 10° WNW 20:13:27 18° NNW 20:15:48 10° NNE visible
27 Sep -1.9 19:18:31 10° W 19:21:23 27° NNW 19:24:15 10° NNE visible
28 Sep -0.9 20:05:17 10° NW 20:06:34 12° NNW 20:07:49 10° N visible
03 Oct -0.9 20:37:30 10° N 20:37:39 10° N 20:37:39 10° N visible
